OpenBCM V1.08-3-g9b42 (Linux)

Packet Radio Mailbox

OK0NBR

[Sao_Jose_dos_Campo]

 Login: GUEST





  
I0OJJ  > KEPS     12.12.25 00:33l 328 Lines 15613 Bytes #223 (0) @ AMSAT
BID : ORB25346.1
Read: GUEST
Subj: 2Line Orbital Elements 25346.AMSAT
Path: OK0NBR<IW0QNL<HB9ON<DK0WUE<PD0LPM<IR0AAB<I0OJJ
Sent: 251212/0021z @:I0OJJ.ITA.EU [Rome] obcm1.08-11-2-gbfe9
From: I0OJJ @ I0OJJ.ITA.EU (Gustavo)
To:   KEPS @ AMSAT
X-Info: This message was generated automatically


QST de W1STR

AMSAT Orbital Elements for Amateur Satellites in TLE Format
From Orbital Analysis Office
New England Sci-Tech STEM Education Center
Natick MA December 12, 2025
To all radio amateurs


These element sets describe the orbits of various satellites 
in use by the amateur radio community. For details see:
www.amsat.org/keplerian-elements-formats/

A daily update of element sets is available at:
www.amsat.org/tle/daily-bulletin.txt
or without bulletin text:
www.amsat.org/tle/dailytle.txt


AO-07
1 07530U 74089B   25345.47964023 -.00000032  00000-0  92990-4 0  9996
2 07530 101.9967 351.7341 0012362 128.9920  28.3011 12.53694131336999
UO-11
1 14781U 84021B   25345.45039861  .00003283  00000-0  34475-3 0  9993
2 14781  97.7812 308.4987 0009310  85.8125 274.4156 14.90135582229165
AO-27
1 22825U 93061C   25345.18053039  .00000203  00000-0  94334-4 0  9998
2 22825  98.7148  47.4441 0007390 294.9383  65.1031 14.30875828680117
FO-29
1 24278U 96046B   25345.51606374 -.00000002  00000-0  35888-4 0  9998
2 24278  98.5463 214.8158 0349126 223.1562 134.1727 13.53262857447782
GO-32
1 25397U 98043D   25345.44235191  .00000181  00000-0  98257-4 0  9993
2 25397  98.9919 328.6245 0002089  59.4694 300.6690 14.24376547424602
ISS
1 25544U 98067A   25345.50919951  .00014464  00000-0  26545-3 0  9992
2 25544  51.6308 148.5724 0003317 235.7177 124.3498 15.49508857542668
NO-44
1 26931U 01043C   25345.47889506  .00000349  00000-0  16116-3 0  9999
2 26931  67.0516   9.7395 0007424 270.1555  89.8697 14.31853935263575
SO-50
1 27607U 02058C   25345.45622618  .00003733  00000-0  46235-3 0  9999
2 27607  64.5547 349.5658 0072184 296.8499  62.5239 14.82382547236624
CO-55
1 27844U 03031E   25345.46591465  .00000630  00000-0  29225-3 0  9993
2 27844  98.6766 351.3854 0009849  17.0726 343.0782 14.24177799164954
CO-57
1 27848U 03031J   25345.01007226  .00000473  00000-0  22723-3 0  9996
2 27848  98.6793 350.7988 0010082  35.4296 324.7550 14.23485176164607
RS-22
1 27939U 03042A   25345.62383603  .00002642  00000-0  41954-3 0  9999
2 27939  98.3369 159.7944 0012018 138.9673 285.5925 14.72966770187931
CO-58
1 28895U 05043F   25345.35396443  .00003373  00000-0  54605-3 0  9999
2 28895  98.2722 132.4082 0015381  82.3047 277.9906 14.71892354 74113
CO-65
1 32785U 08021C   25345.57639005  .00009076  00000-0  60936-3 0  9999
2 32785  97.8088 318.6484 0007912 316.1996  43.8602 15.07021893956914
CO-66
1 32791U 08021J   25345.46022397  .00030915  00000-0  12310-2 0  9992
2 32791  97.7446 330.5614 0001188 218.8758 141.2394 15.25186577958609
RS-30
1 32953U 08025A   25345.66436325  .00000030  00000-0  14393-3 0  9997
2 32953  82.5021 112.0921 0019056   3.4697 356.6512 12.43171777796390
SRMSAT
1 37841U 11058D   25345.38697521  .00000536  00000-0  14736-3 0  9996
2 37841  19.9706 116.1380 0011724 298.4928  87.0912 14.11510889731257
ZACUBE-1
1 39417U 13066B   25345.45689729  .00008687  00000-0  70735-3 0  9993
2 39417  97.8070 302.0001 0041874 151.0271 209.3289 14.99068100652581
Delfi-N3xt
1 39428U 13066N   25345.33275522  .00015343  00000-0  14315-2 0  9992
2 39428  97.8341 261.2418 0081049 109.9102 251.0872 14.91789998646587
GOMX-1
1 39430U 13066Q   25345.53903127  .00003502  00000-0  53843-3 0  9990
2 39430  97.6592 192.7393 0129833 320.4282  38.7501 14.68573760642362
LO-74
1 39440U 13066AA  25345.59903068  .00009084  00000-0  87386-3 0  9991
2 39440  97.8701 289.2718 0058021 289.7098  69.7867 14.91951387649000
AO-73
1 39444U 13066AE  25345.45900388  .00016234  00000-0  10986-2 0  9998
2 39444  97.8058 308.7214 0040358 120.0421 240.4819 15.05920754651376
DTUSAT-2
1 40030U 14033W   25345.41205578  .00015384  00000-0  90546-3 0  9997
2 40030  98.0761 326.8035 0009298 143.3629 216.8237 15.11701974624280
EO-80
1 40032U 14033Y   25345.42278664  .00016464  00000-0  96630-3 0  9996
2 40032  98.0645 326.2101 0009853  93.0394 267.1962 15.11783040624264
LILACSAT-2
1 40908U 15049K   25345.50538932  .00043232  00000-0  92414-3 0  9991
2 40908  97.4917  10.8490 0007121 201.5141 158.5809 15.44683366566714
IO-86
1 40931U 15052B   25151.18580175  .00001241  00000-0  78118-4 0  9996
2 40931   6.0006  24.0987 0012733 338.8432  21.1169 14.78805930523159
Horyu-4
1 41340U 16012D   25345.26712285  .00086481  00000-0  14525-2 0  9990
2 41340  30.9950 320.0914 0006928 219.1449 140.8700 15.50377219541329
Lapan A3
1 41603U 16040E   25345.64942933  .00005474  00000-0  18196-3 0  9992
2 41603  97.1434 343.2453 0009793 338.1570  21.9253 15.31535965526090
CAS-2T
1 41847U 16066G   25345.44524155  .00001754  00000-0  25683-3 0  9996
2 41847  98.4038  58.1979 0343361 339.0839  19.6584 14.44126603477699
TechnoSat
1 42829U 17042E   25345.39731208  .00007443  00000-0  54943-3 0  9997
2 42829  97.4044 145.6607 0018517  17.7469 342.4400 15.03396722458473
AO-91
1 43017U 17073E   25345.45102176  .00020398  00000-0  96207-3 0  9997
2 43017  97.4949 211.6763 0159746 254.9625 103.3878 15.08821768437044
S-Net D
1 43186U 18014G   25345.30032388  .00010761  00000-0  59024-3 0  9990
2 43186  97.5481 246.4001 0007473 319.7069  40.3608 15.14323717430306
S-Net B
1 43187U 18014H   25345.63875139  .00009364  00000-0  51440-3 0  9997
2 43187  97.5487 246.7160 0007927 312.0911  47.9646 15.14305904430356
S-Net A
1 43188U 18014J   25345.23396024  .00010892  00000-0  59721-3 0  9993
2 43188  97.5495 246.4907 0007942 314.5464  45.5118 15.14329089430290
S-Net C
1 43189U 18014K   25345.31131698  .00010773  00000-0  59116-3 0  9993
2 43189  97.5511 246.6126 0009118 304.4215  55.6154 15.14296416428852
Ten-Koh
1 43677U 18084G   25345.51234848  .00005613  00000-0  43508-3 0  9990
2 43677  98.0744 165.0824 0009398  27.2966 332.8749 15.01806979387985
PO-101
1 43678U 18084H   25345.58434311  .00005054  00000-0  41745-3 0  9995
2 43678  98.1027 169.0005 0007580  48.6342 311.5531 14.99426564388092
QO-100
1 43700U 18090A   25345.49663440  .00000152  00000-0  00000-0 0  9995
2 43700   0.0183 317.8505 0001254 324.9049   2.3504  1.00274294 25796
MinXSS-2
1 43758U 18099A   25345.45104716  .00048859  00000-0  14587-2 0  9992
2 43758  97.4797  52.7977 0008963 216.9813 143.0813 15.34420753385229
AO-95
1 43770U 18099N   25345.60940083  .00017987  00000-0  79269-3 0  9995
2 43770  97.4677  41.8995 0008267 290.7962  69.2388 15.21836022384648
SNUSat 2
1 43782U 18099AA  25345.60425507  .00013868  00000-0  67911-3 0  9992
2 43782  97.4358  37.0299 0009904 226.2902 133.7513 15.18239481384535
SnugLite
1 43784U 18099AC  25345.59684420  .00018309  00000-0  79823-3 0  9993
2 43784  97.4167  37.0655 0002190 205.0234 155.0897 15.22227961384733
ITASat 1
1 43786U 18099AE  25345.37789414  .00014606  00000-0  76088-3 0  9996
2 43786  97.4324  35.7173 0011992 289.0757  70.9177 15.16036932384423
EAGLET 1
1 43790U 18099AJ  25345.57911752  .00007241  00000-0  43561-3 0  9992
2 43790  97.4524  35.1461 0010019 274.4016  85.6069 15.11092409383988
ESEO
1 43792U 18099AL  25345.48373026  .00002847  00000-0  21306-3 0  9990
2 43792  97.4222  25.7195 0010976 252.5776 107.4250 15.03466755383598
JO-97
1 43803U 18099AX  25345.57040911  .00023258  00000-0  88402-3 0  9996
2 43803  97.4424  43.3899 0005812 205.5958 154.4994 15.26782069384935
Suomi 100
1 43804U 18099AY  25345.40747304  .00023662  00000-0  99808-3 0  9990
2 43804  97.4489  41.8780 0010149 216.9030 143.1509 15.23253804384782
ISAT
1 43879U 18111D   25345.50377443  .00067109  00000-0  15808-2 0  9992
2 43879  97.5898 265.1526 0003408 260.0212 100.0650 15.41691466382057
UWE-4
1 43880U 18111E   25345.26382783  .00046688  00000-0  14005-2 0  9997
2 43880  97.5845 261.7474 0007448 284.8855  75.1562 15.34294569381856
Sparrow
1 43881U 18111F   25345.29575181  .00077576  00000-0  16938-2 0  9994
2 43881  97.6085 268.6821 0003217 338.5650  21.5463 15.43918880382143
Prox-1
1 44339U 19036A   25345.49850104  .00023321  00000-0  26248-2 0  9997
2 44339  23.9962 282.9917 0006387  28.4683 331.6163 14.85139669345488
Taurus 1
1 44530U 19059C   25345.68156438  .00017756  00000-0  30201-2 0  9994
2 44530  98.6228 134.4764 0009112 177.3541 182.7713 14.69131215331080
Duchifat 3
1 44854U 19089C   25342.89580904  .10801921  36355-5  10723-2 0  9995
2 44854  36.9163 249.0625 0006835 253.5286 106.4749 16.36980481331538
TO-108
1 44881U 19093C   25345.62321828  .00002080  00000-0  24318-3 0  9999
2 44881  97.7754  57.2793 0013452 350.0582  10.0365 14.86099119323558
FloripaSat 1
1 44885U 19093G   25345.37745557  .00010074  00000-0  78756-3 0  9991
2 44885  97.8042  73.5641 0010634 341.8791  18.2052 15.01235508324449
RS-44
1 44909U 19096E   25345.60680874  .00000040  00000-0  11840-3 0  9990
2 44909  82.5208 104.3613 0216996 222.7462 135.6586 12.79746077278358
SALSAT
1 46495U 20068K   25345.48272149  .00015106  00000-0  58418-3 0  9992
2 46495  97.8788 332.6870 0008814 234.3295 125.7122 15.26291434286693
CSS (TIANHE-1)
1 48274U 21035A   25345.49763178  .00036404  00000-0  45433-3 0  9999
2 48274  41.4684  24.2481 0008596  20.0947 340.0228 15.59100786263838
TUBIN
1 48900U 21059X   25345.60206098  .01383323  15527-2  94794-3 0  9999
2 48900  97.6665 173.9142 0004040 274.1685  85.9140 16.17023059249141
CUTE
1 49263U 21088D   25345.49087127  .00046525  00000-0  60833-3 0  9995
2 49263  97.4345  68.2839 0004317 276.1998  83.8766 15.58497086233101
TeikyoSat 4
1 49396U 21102B   25345.54087765  .00002953  00000-0  19232-3 0  9997
2 49396  97.3904  17.1852 0011211 211.8550 148.2003 15.08634174224428
Z-Sat
1 49399U 21102E   25345.58941851  .00008811  00000-0  45488-3 0  9990
2 49399  97.3578  21.5671 0017198 176.2566 183.8799 15.16416873224999
